Location: Kermapucano
(48.0667°N, 3.3000°W)
Time: 19:15:56
(UTC+00:00)

Cosmos 1689 Rocket - Pass Details

Date: 29 November 2020
Orbit: 355 x 369 km, 97.5° (Epoch: 27 January)

Event Time Altitude Azimuth Distance (km) Brightness Sun altitude
Rises 05:01:32 0° 146° (SE) 2,173 6.4 -25.7°
Reaches altitude 10° 05:03:33 10° 136° (SE) 1,336 5.4 -25.4°
Enters shadow 05:04:48 21° 118° (ESE) 887 4.6 -25.2°
